Regional Weather Roundup
Issued by NWS Sioux Falls, SD

Home | Current Version | Previous Version | Graphics & Text | Print | Product List | Glossary On
Versions: 1 2 3 4 5 6 7 8 9 10 11 12 13 14 15 16 17 18 19 20 21 22 23 24 25 26 27 28 29 30 31 32 33 34 35 36 37 38 39 40 41 42 43 44 45 46 47 48 49 50
000
ASUS43 KFSD 290902
RWRFSD

WEATHER ROUNDUP FOR SE SOUTH DAKOTA/SW MINNESOTA/NW IOWA
NATIONAL WEATHER SERVICE SIOUX FALLS SD
400 AM CDT TUE JUL 29 2014

NOTE: "FAIR" INDICATES FEW OR NO CLOUDS BELOW 12,000 FEET WITH NO
SIGNIFICANT WEATHER AND OR OBSTRUCTIONS TO VISIBILITY.


SDZ038>040-050-052>070-291000-
SOUTHEAST SOUTH DAKOTA

CITY           SKY/WX    TMP DP  RH WIND       PRES   REMARKS
CHAMBERLAIN    CLEAR     50  47  91 CALM      30.22F
HURON          PTCLDY    51  49  92 CALM      30.21F
MADISON        FAIR      48  48 100 CALM      30.22F
MITCHELL       PTCLDY    55  52  89 W3        30.22S
SIOUX FALLS    CLEAR     53  51  93 CALM      30.21F
WINNER         FAIR      57  50  77 SE3       30.23S
YANKTON        CLEAR     54  50  87 CALM      30.21S
$$

MNZ071-072-080-081-089-090-097-098-291000-
SOUTHWEST MINNESOTA

CITY           SKY/WX    TMP DP  RH WIND       PRES   REMARKS
FAIRMONT       CLEAR     55  48  76 NW7       30.17S
JACKSON        CLEAR     54  50  87 W5        30.19F
LUVERNE        CLEAR     54  48  82 CALM      30.21F
MARSHALL       CLEAR     52  48  87 W8        30.18F
MONTEVIDEO     CLEAR     54  54 100 NW7       30.19S
PIPESTONE      CLEAR     52  50  93 CALM      30.21F
REDWOOD FALLS  CLEAR     55  52  89 NW7       30.17S
TRACY          CLEAR     57  52  81 W7        30.20F
WINDOM         CLEAR     54  50  87 W5        30.19S
WORTHINGTON    CLEAR     52  48  87 NW7       30.21S
$$

IAZ001>003-012>014-020>022-031-032-NEZ013-014-SDZ071-291000-
NORTHWEST IOWA

CITY           SKY/WX    TMP DP  RH WIND       PRES   REMARKS
CHEROKEE       CLEAR     52  52 100 CALM      30.20S
DENISON        CLEAR     54  54 100 CALM      30.17F
ESTHERVILLE    CLEAR     54  52  93 NW7       30.18S
LE MARS        PTCLDY    52  52 100 CALM      30.21S FOG
ORANGE CITY    CLEAR     55  52  88 CALM      30.20F
SHELDON        CLEAR     48  46  93 CALM      30.20S
SIOUX CITY     CLEAR     54  53  97 CALM      30.20F
SPENCER        CLEAR     50  48  93 W5        30.19F
STORM LAKE     CLEAR     54  54 100 N7        30.20F
$$

ABBREVIATIONS USED IN REMARKS
   TC - TEMPERATURE IN CELSIUS
  WCI - WIND CHILL INDEX
   HX - HEAT INDEX
  VSB - VISIBILITY




USA.gov is the U.S. government's official web portal to all federal, state and local government web resources and services.